Location: Davayat
(45.9471°N, 3.1105°E)
Time: 12:47:22
(UTC+00:00)

Cosmos 1812 - Pass Details

Date: 01 December 2020
Orbit: 517 x 520 km, 82.5° (Epoch: 26 January)

Event Time Altitude Azimuth Distance (km) Brightness Sun altitude
Rises 17:30:31 0° 162° (SSE) 2,626 6.3 -14.5°
Reaches altitude 10° 17:32:49 10° 151° (SSE) 1,744 5.2 -14.9°
Maximum altitude 17:36:08 29° 91° (E) 973 3.5 -15.5°
Enters shadow 17:36:11 29° 90° (E) 973 3.5 -15.5°
